| time (UTC) | temp F | wind direction | speed MPH | gust MPH | rain 1hr in | rain 24hr in | rain mn in | humidity % | barometer mb |
| 20260906090205 | 69 | 346 | 0.0 | 1.0 | 0.00 | 0.00 | 0.00 | 66 | 1021.5 |
| 20260906080208 | 63 | 91 | 0.0 | 1.0 | 0.00 | 0.00 | 0.00 | 80 | 1021.8 |
| 20260906070207 | 60 | 335 | 0.0 | 0.0 | 0.00 | 0.00 | 0.00 | 89 | 1021.6 |
| 20260906060206 | 58 | 100 | 0.0 | 0.0 | 0.00 | 0.00 | 0.00 | 90 | 1021.6 |
| 20260906050207 | 58 | 100 | 0.0 | 0.0 | 0.00 | 0.00 | 0.00 | 90 | 1021.2 |
| 20260906040206 | 58 | 100 | 0.0 | 0.0 | 0.00 | 0.00 | 0.00 | 90 | 1020.9 |
| 20260906020206 | 60 | 100 | 0.0 | 0.0 | 0.00 | 0.00 | 0.00 | 89 | 1021.2 |
| 20260906000208 | 63 | 100 | 0.0 | 0.0 | 0.00 | 0.00 | 0.00 | 87 | 1021.1 |
| 20260905230207 | 64 | 59 | 0.0 | 0.0 | 0.00 | 0.00 | 0.00 | 83 | 1021.3 |
| 20260905220206 | 65 | 67 | 0.0 | 0.0 | 0.00 | 0.00 | 0.00 | 83 | 1021.1 |
| 20260905200211 | 68 | 320 | 0.0 | 1.0 | 0.00 | 0.00 | 0.00 | 75 | 1020.8 |
| 20260905190213 | 70 | 320 | 0.0 | 0.0 | 0.00 | 0.00 | 0.00 | 65 | 1020.3 |
| 20260905180207 | 72 | 279 | 0.0 | 0.0 | 0.00 | 0.00 | 0.00 | 61 | 1019.9 |
| 20260905160205 | 75 | 312 | 0.0 | 6.0 | 0.00 | 0.00 | 0.00 | 58 | 1019.6 |
| 20260905150207 | 75 | 282 | 1.0 | 10.0 | 0.00 | 0.00 | 0.00 | 59 | 1019.9 |
| 20260905140207 | 73 | 319 | 0.0 | 0.0 | 0.00 | 0.00 | 0.00 | 64 | 1020.1 |
| 20260905130206 | 73 | 300 | 2.0 | 9.0 | 0.00 | 0.00 | 0.00 | 65 | 1020.4 |
| 20260905120208 | 74 | 3 | 2.0 | 10.0 | 0.00 | 0.00 | 0.00 | 66 | 1020.2 |
| 20260905110206 | 75 | 340 | 0.0 | 5.0 | 0.00 | 0.00 | 0.00 | 59 | 1019.4 |
| 20260905100206 | 76 | 204 | 0.0 | 5.0 | 0.00 | 0.00 | 0.00 | 57 | 1019.4 |